Current weather by "City, St" or "zip code"  
 
Advertise Here

Current Conditions: Orange, Orange County Airport, TX

Overcast


76.0 F

Last Updated on Sep 16 2021, 10:55 pm CDT
Humidity: 93%
Wind Speed: N 0.0 mph
Barometer 29.90 in
Dewpoint: 73.8 F
Visibility: 7.00 mi
Precip: --
Heat Index: NA
Wind Chill: NA
Current conditions at:

Orange, Orange County Airport, TX (KORG)

Lat: 30.06917 Lon: 93.80361

Local Radar Image active severe weather and emergency alerts image image weather storm and storm spotter reports image weather observation monitoring service image
Local
Radar
Active
Alerts
Storm Reports Obs
Monitoring

Sign-up For Email & Text Message Weather Alert Notification Services



Advertise Here

Observation History for Orange, Orange County Airport, TX


Time Wind
(mph)
Vis
(mi)
Weather Precip (in) Temperature (F) Relative
Humidity
Wind
Chill
(F)
Heat
Index
(F)
Pressure
Air Dwpt altimeter
(in)
sea level
(mb)
Rmks
10:55 pm CDT N 0.0 7.00 Overcast -- 76.0 73.8 93% NA NA 29.90 M
9:55 pm CDT N 0.0 7.00 Overcast -- 77.0 73.6 90% NA NA 29.89 M
8:55 pm CDT N 0.0 10.00 Overcast -- 77.0 73.6 89% NA NA 29.88 M
7:55 pm CDT N 0.0 10.00 Overcast -- 78.0 73.4 87% NA NA 29.86 M
6:55 pm CDT N 3.5 10.00 Overcast -- 78.0 73.4 86% NA NA 29.85 M
5:55 pm CDT N 6.9 10.00 Mostly Cloudy -- 79.0 73.4 83% NA NA 29.84 M
4:55 pm CDT N 6.9 10.00 Mostly Cloudy -- 81.0 73.6 78% NA 86 29.82 M
3:55 pm CDT NW 3.5 10.00 Overcast -- 81.0 73.6 78% NA 86 29.83 M
2:55 pm CDT N 5.8 10.00 Overcast -- 80.0 73.4 80% NA 84 29.84 M
1:55 pm CDT N 4.6 10.00 Overcast -- 79.0 73.9 85% NA NA 29.86 M
12:55 pm CDT N 4.6 10.00 Overcast -- 78.0 73.0 85% NA NA 29.87 M
11:55 am CDT NE 3.5 10.00 Overcast -- 78.0 72.9 86% NA NA 29.88 M
10:55 am CDT N 5.8 10.00 Overcast -- 76.0 73.0 89% NA NA 29.88 M
9:55 am CDT NE 5.8 10.00 Overcast -- 75.0 73.4 94% NA NA 29.87 M
8:55 am CDT N 4.6 2.50 Fog/Mist -- 74.0 72.5 94% NA NA 29.85 M
7:55 am CDT N 4.6 1.25 Fog/Mist -- 74.0 72.1 95% NA NA 29.83 M
6:55 am CDT N 3.5 2.50 Fog/Mist -- 74.0 71.8 94% NA NA 29.82 M
5:55 am CDT N 3.5 7.00 Overcast -- 74.0 71.6 93% NA NA 29.81 M
4:55 am CDT N 3.5 10.00 Overcast -- 74.0 71.6 91% NA NA 29.81 M
3:55 am CDT N 3.5 10.00 Overcast -- 74.0 71.2 90% NA NA 29.80 M
2:55 am CDT N 3.5 10.00 Overcast -- 74.0 71.1 90% NA NA 29.80 M
1:55 am CDT N 5.8 10.00 Overcast -- 74.0 71.1 89% NA NA 29.81 M
12:55 am CDT N 4.6 10.00 Overcast -- 74.0 71.6 91% NA NA 29.82 M

Regional Weather Observation


Beaumont Municipal Airport, TX (KBMT)

Overcast
76.0 F

De Quincy Industrial Airpark, LA (K5R8)

Overcast
74.0 F

Southland Field, LA (KUXL)

Overcast
76.0 F

Jasper, Jasper County-Bell Field Airport, TX (KJAS)

NULL
73.0 F

Beaumont/Port Arthur Southeast Texas Regional Airport, TX (KBPT)

Overcast
74.0 F

Lake Charles Regional Airport, LA (KLCH)

Fog/Mist
76.0 F
Advertise Here


Advertise Here